RYR1KM EIDW-ELLX

Flight info

Callsign RYR1KM
Flight time N/A
Altitude 37000
Route DEXEN2J DEXEN UY124 AMPIT L15 FINMA DCT CHT DCT ITVIP DCT KONAN DCT KOK UL607 FERDI DCT REMBA REMBA3D
Aircraft A320/M-SDE3FGHIRWY/LB1

Departure

Time N/A
Airport Dublin Airport (EIDW)

Arrival

Time 2026-05-05 17:20
Airport Luxembourg-Findel International Airport (ELLX)
Time Latitude Longitude Altitude Speed Heading
2026-05-05 17:05 50.48027 5.19548 24844 ft 466 kts 136°
2026-05-05 17:05 50.45701 5.23137 24851 ft 470 kts 136°
2026-05-05 17:05 50.43360 5.26741 24852 ft 472 kts 136°
2026-05-05 17:06 50.41024 5.30326 24855 ft 472 kts 136°
2026-05-05 17:06 50.38667 5.33925 24849 ft 472 kts 136°
2026-05-05 17:06 50.36310 5.37519 24845 ft 472 kts 136°
2026-05-05 17:06 50.33953 5.41107 24847 ft 472 kts 136°
2026-05-05 17:07 50.31595 5.44694 24844 ft 472 kts 136°
2026-05-05 17:07 50.29242 5.48271 24847 ft 472 kts 136°
2026-05-05 17:07 50.26893 5.51840 24599 ft 468 kts 136°
2026-05-05 17:07 50.24569 5.55367 23449 ft 464 kts 136°
2026-05-05 17:08 50.22260 5.58862 22124 ft 460 kts 136°
2026-05-05 17:08 50.19982 5.62303 20859 ft 453 kts 136°
2026-05-05 17:08 50.17719 5.65721 19958 ft 448 kts 137°
2026-05-05 17:08 50.15490 5.69085 18845 ft 439 kts 137°
2026-05-05 17:09 50.13303 5.72379 17693 ft 435 kts 137°
2026-05-05 17:09 50.11162 5.75601 16376 ft 420 kts 137°
2026-05-05 17:09 50.09087 5.78720 14960 ft 410 kts 137°
2026-05-05 17:09 50.07058 5.81770 13636 ft 403 kts 137°
2026-05-05 17:10 50.05050 5.84785 12692 ft 401 kts 136°
2026-05-05 17:10 50.03028 5.87818 12057 ft 403 kts 137°
2026-05-05 17:10 50.01012 5.90836 11368 ft 400 kts 137°
2026-05-05 17:10 49.99023 5.93808 10681 ft 396 kts 138°
2026-05-05 17:11 49.95282 5.99389 10154 ft 373 kts 138°
2026-05-05 17:11 49.93456 6.02116 9921 ft 356 kts 138°
2026-05-05 17:11 49.91711 6.04713 9808 ft 338 kts 138°
2026-05-05 17:12 49.90087 6.07127 9827 ft 318 kts 139°
2026-05-05 17:12 49.88521 6.09450 9723 ft 305 kts 139°
2026-05-05 17:12 49.87014 6.11677 9595 ft 294 kts 139°
2026-05-05 17:12 49.85653 6.13995 9101 ft 290 kts 128°
2026-05-05 17:13 49.84499 6.16552 8432 ft 288 kts 127°
2026-05-05 17:13 49.83360 6.19092 7818 ft 286 kts 127°
2026-05-05 17:13 49.82235 6.21600 7194 ft 283 kts 127°
2026-05-05 17:13 49.81110 6.24106 6557 ft 280 kts 127°
2026-05-05 17:14 49.80003 6.26567 5928 ft 278 kts 127°
2026-05-05 17:14 49.78900 6.29009 5265 ft 276 kts 127°
2026-05-05 17:14 49.77822 6.31389 5008 ft 260 kts 127°
2026-05-05 17:14 49.76826 6.33589 4905 ft 240 kts 127°
2026-05-05 17:15 49.75903 6.35631 4798 ft 222 kts 127°
2026-05-05 17:15 49.75055 6.37507 4693 ft 205 kts 127°
2026-05-05 17:15 49.74257 6.39267 4652 ft 199 kts 127°
2026-05-05 17:15 49.73377 6.40816 4518 ft 185 kts 146°
2026-05-05 17:16 49.72235 6.41589 4213 ft 179 kts 171°
2026-05-05 17:16 49.71032 6.41493 3926 ft 170 kts 197°
2026-05-05 17:16 49.70042 6.40667 3756 ft 151 kts 219°
2026-05-05 17:16 49.69408 6.39445 3577 ft 143 kts 239°
2026-05-05 17:17 49.68924 6.38129 3411 ft 140 kts 238°
2026-05-05 17:17 49.68442 6.36826 3223 ft 139 kts 238°
2026-05-05 17:17 49.67972 6.35550 3044 ft 138 kts 238°
2026-05-05 17:17 49.67496 6.34264 2852 ft 138 kts 238°
2026-05-05 17:18 49.67021 6.32976 2673 ft 138 kts 239°
2026-05-05 17:18 49.66547 6.31693 2480 ft 138 kts 239°
2026-05-05 17:18 49.66072 6.30410 2311 ft 137 kts 239°
2026-05-05 17:18 49.65598 6.29128 2109 ft 137 kts 239°
2026-05-05 17:19 49.65125 6.27848 1899 ft 137 kts 239°
2026-05-05 17:19 49.64652 6.26571 1715 ft 137 kts 239°
2026-05-05 17:19 49.64179 6.25294 1521 ft 137 kts 239°
2026-05-05 17:19 49.63707 6.24020 1344 ft 137 kts 239°
2026-05-05 17:20 49.63245 6.22773 1223 ft 122 kts 241°
2026-05-05 17:20 49.62912 6.21877 1217 ft 71 kts 240°
2026-05-05 17:20 49.62740 6.21411 1217 ft 40 kts 240°
2026-05-05 17:20 49.62651 6.21035 1215 ft 35 kts 264°
2026-05-05 17:21 49.62657 6.20793 1201 ft 19 kts 294°
2026-05-05 17:21 49.62770 6.20756 1197 ft 20 kts 25°
2026-05-05 17:21 49.62845 6.20896 1196 ft 18 kts 65°
2026-05-05 17:22 49.62969 6.21292 1197 ft 23 kts 64°
2026-05-05 17:22 49.63039 6.21526 1197 ft 24 kts 63°
2026-05-05 17:22 49.63120 6.21625 1197 ft 15 kts 338°
2026-05-05 17:22 49.63206 6.21540 1196 ft 11 kts 293°
2026-05-05 17:23 49.63192 6.21478 1196 ft 3 kts 240°
2026-05-05 17:23 49.63192 6.21477 1196 ft 0 kts 242°